User: anonymous   Login
Location: Ottawa
(45.4170°N, 75.7000°W)
Time: 00:55:56
(UTC-04:00)
Language:

Aureole 3 Rocket - Orbit

View from above orbital plane
View from above orbital plane
View from above satellite
View from above satellite

Ground track
Ground track

The orbit data is extracted from the following two-line orbital elements,

1 12849U 81094B   16272.87343225 +.00000473 +00000-0 +40504-4 0  9999
2 12849 082.4967 007.2484 0904784 037.6153 328.4874 13.49952314706688
Epoch (UTC): 28 September 2016 20:57:44
Eccentricity: 0.0904784
inclination: 82.4967°
perigee height: 398 km
apogee height: 1746 km
right ascension of ascending node: 7.2484°
argument of perigee: 37.6153°
revolutions per day: 13.49952314
mean anomaly at epoch: 328.4874°
orbit number at epoch: 70668

The dashed part of the orbit path shows where the satellite is in the earth's shadow,  

DLR